#timestamp,LO_Frequency,Hit,Temp,Hum 
1478811615.2,286046823.7,N,0.0,0.0
1478811635.9,286046826.7,N,0.0,0.0
1478811655.7,286046823.7,N,0.0,0.0
1478811675.6,286046825.8,N,0.0,0.0
1478811695.4,286046811.6,N,0.0,0.0
1478811715.2,286046821.7,N,0.0,0.0
1478811735.1,286046827.7,N,0.0,0.0
1478811736.0,286046827.7,N,0.0,0.0
1478811755.8,286046827.1,N,0.0,0.0
1478811775.7,286046829.9,N,0.0,0.0
1478811795.5,286046826.9,N,0.0,0.0
1478811815.3,286046829.3,N,0.0,0.0
1478811835.2,286046828.6,N,0.0,0.0
1478811855.0,286046829.4,N,0.0,0.0
1478811855.9,286046829.4,N,0.0,0.0
1478811875.8,286046828.6,N,0.0,0.0
1478811895.6,286046828.6,N,0.0,0.0
1478811915.4,286046831.4,N,0.0,0.0
1478811935.3,286046831.3,N,0.0,0.0
1478811955.1,286046832.7,N,0.0,0.0
1478811956.0,286046832.7,N,0.0,0.0
1478811975.8,286046834.7,N,0.0,0.0
1478811995.7,286046834.1,N,0.0,0.0
1478812015.5,286046834.1,N,0.0,0.0
1478812035.3,286046834.3,N,0.0,0.0
1478812055.2,286046835.7,N,0.0,0.0
1478812075.0,286046834.9,N,0.0,0.0
1478812075.9,286046834.9,N,0.0,0.0
1478812095.8,286046837.7,N,0.0,0.0
1478812115.6,286046827.6,N,0.0,0.0
1478812135.4,286046827.6,N,0.0,0.0
1478812155.3,286046828.3,N,0.0,0.0
1478812175.1,286046828.0,N,0.0,0.0
1478812195.9,286046767.3,N,0.0,0.0
1478812215.7,286046827.2,N,0.0,0.0
1478812235.5,286046828.7,N,0.0,0.0
1478812255.4,286046828.5,N,0.0,0.0
1478812275.2,286046828.7,N,0.0,0.0
1478812295.0,286046831.1,N,0.0,0.0
1478812295.9,286046831.1,N,0.0,0.0
1478812315.8,286046828.6,N,0.0,0.0
1478812335.6,286046830.9,N,0.0,0.0
1478812355.4,286046830.7,N,0.0,0.0
1478812375.3,286046832.4,N,0.0,0.0
1478812395.1,286046830.2,N,0.0,0.0
1478812415.9,286046832.7,N,0.0,0.0
1478812435.7,286046832.9,N,0.0,0.0
1478812455.5,286046831.9,N,0.0,0.0
1478812475.4,286046834.1,N,0.0,0.0
1478812495.2,286046834.1,N,0.0,0.0
1478812515.0,286046836.2,N,0.0,0.0
1478812515.9,286046836.2,N,0.0,0.0
1478812535.8,286046837.1,N,0.0,0.0
1478812555.6,286046836.7,N,0.0,0.0
1478812575.5,286046837.3,N,0.0,0.0
1478812595.3,286046836.7,N,0.0,0.0
1478812615.1,286046838.7,N,0.0,0.0
1478812635.9,286046841.2,N,0.0,0.0
1478812655.7,286046838.1,N,0.0,0.0
1478812675.5,286046837.3,N,0.0,0.0
1478812695.4,286046821.6,N,0.0,0.0
1478812715.2,286046838.7,N,0.0,0.0
1478812735.0,286046838.3,N,0.0,0.0
1478812735.9,286046838.3,N,0.0,0.0
1478812755.8,286046835.4,N,0.0,0.0
1478812775.6,286046838.6,N,0.0,0.0
1478812795.5,286046841.0,N,0.0,0.0
1478812815.3,286046842.7,N,0.0,0.0
1478812835.1,286046842.2,N,0.0,0.0
1478812855.9,286046838.8,N,0.0,0.0
1478812875.7,286046843.7,N,0.0,0.0
1478812895.5,286046842.1,N,0.0,0.0
1478812915.4,286046840.2,N,0.0,0.0
1478812935.2,286046840.2,N,0.0,0.0
1478812955.0,286046842.7,N,0.0,0.0
1478812956.0,286046842.7,N,0.0,0.0
1478812975.8,286046840.1,N,0.0,0.0
1478812995.6,286046841.5,N,0.0,0.0
1478813015.5,286046842.6,N,0.0,0.0
1478813035.3,286046841.3,N,0.0,0.0
1478813055.1,286046844.4,N,0.0,0.0
1478813075.9,286046841.3,N,0.0,0.0
1478813095.7,286046841.8,N,0.0,0.0
1478813115.5,286046843.3,N,0.0,0.0
1478813135.4,286046843.3,N,0.0,0.0
1478813155.2,286046845.6,N,0.0,0.0
1478813175.1,286046843.6,N,0.0,0.0
1478813176.0,286046843.6,N,0.0,0.0
1478813195.8,286046838.9,N,0.0,0.0
1478813215.6,286046840.6,N,0.0,0.0
1478813235.5,286046839.7,N,0.0,0.0
1478813255.3,286046842.0,N,0.0,0.0
1478813275.1,286046842.5,N,0.0,0.0
1478813295.9,286046842.5,N,0.0,0.0
1478813315.7,286046846.5,N,0.0,0.0
1478813335.6,286046843.9,N,0.0,0.0
1478813355.4,286046844.4,N,0.0,0.0
1478813375.2,286046848.7,N,0.0,0.0
1478813395.1,286046848.5,N,0.0,0.0
1478813396.0,286046848.5,N,0.0,0.0
1478813415.8,286046850.1,N,0.0,0.0
1478813435.6,286046847.8,N,0.0,0.0
1478813455.5,286046848.0,N,0.0,0.0
1478813475.3,286046848.4,N,0.0,0.0
1478813495.1,286046850.6,N,0.0,0.0
1478813515.9,286046848.6,N,0.0,0.0
1478813535.7,286046850.4,N,0.0,0.0
1478813555.6,286046849.2,N,0.0,0.0
1478813575.4,286046850.6,N,0.0,0.0
1478813595.2,286046848.5,N,0.0,0.0
1478813615.1,286046848.2,N,0.0,0.0
1478813616.0,286046848.2,N,0.0,0.0
1478813635.8,286046851.5,N,0.0,0.0
1478813655.6,286046849.6,N,0.0,0.0
1478813675.5,286046910.2,N,0.0,0.0
1478813695.3,286046853.3,N,0.0,0.0
1478813715.2,286046850.1,N,0.0,0.0
1478813735.9,286046848.8,N,0.0,0.0
1478813755.7,286046853.9,N,0.0,0.0
1478813775.6,286046848.2,N,0.0,0.0
1478813795.4,286046854.0,N,0.0,0.0
1478813815.2,286046852.1,N,0.0,0.0
1478813835.1,286046852.4,N,0.0,0.0
1478813836.0,286046852.4,N,0.0,0.0
1478813855.8,286046851.5,N,0.0,0.0
1478813875.7,286046851.0,N,0.0,0.0
1478813895.5,286046853.3,N,0.0,0.0
1478813915.3,286046851.8,N,0.0,0.0
1478813935.2,286046849.6,N,0.0,0.0
1478813955.9,286046849.6,N,0.0,0.0
1478813975.7,286046849.3,N,0.0,0.0
1478813995.6,286046860.8,N,0.0,0.0
1478814015.4,286046859.1,N,0.0,0.0
1478814035.2,286046860.1,N,0.0,0.0
1478814055.1,286046861.7,N,0.0,0.0
1478814056.0,286046861.7,N,0.0,0.0
1478814075.8,286046861.1,N,0.0,0.0
1478814095.7,286046832.6,N,0.0,0.0
1478814115.5,286046832.7,N,0.0,0.0
1478814135.3,286046832.6,N,0.0,0.0
1478814155.2,286046831.1,N,0.0,0.0
1478814175.0,286046830.3,N,0.0,0.0
1478814175.9,286046830.3,N,0.0,0.0
1478814195.7,286046833.1,N,0.0,0.0
1478814215.6,286046830.8,N,0.0,0.0
1478814235.4,286046816.4,N,0.0,0.0
1478814255.3,286046791.6,N,0.0,0.0
1478814275.1,286046790.9,N,0.0,0.0
1478814276.0,286046790.9,N,0.0,0.0
1478814295.8,286046790.8,N,0.0,0.0
1478814315.7,286046790.6,N,0.0,0.0
1478814335.5,286046788.6,N,0.0,0.0
1478814355.3,286046832.4,N,0.0,0.0
1478814375.2,286046834.6,N,0.0,0.0
1478814395.0,286046846.1,N,0.0,0.0
1478814395.9,286046846.1,N,0.0,0.0
1478814415.8,286046844.7,N,0.0,0.0
1478814435.6,286046832.8,N,0.0,0.0
1478814455.4,286046834.3,N,0.0,0.0
1478814475.3,286046846.4,N,0.0,0.0
1478814495.1,286046836.3,N,0.0,0.0
1478814515.8,286046834.6,N,0.0,0.0
1478814535.7,286046833.6,N,0.0,0.0
1478814555.5,286046836.2,N,0.0,0.0
1478814575.3,286046835.3,N,0.0,0.0
1478814595.2,286046835.8,N,0.0,0.0
1478814615.0,286046835.6,N,0.0,0.0
1478814615.9,286046835.6,N,0.0,0.0
1478814635.8,286046834.9,N,0.0,0.0
1478814655.6,286046835.4,N,0.0,0.0
1478814675.4,286046837.2,N,0.0,0.0
1478814695.3,286046836.8,N,0.0,0.0
1478814715.1,286046837.9,N,0.0,0.0
1478814735.8,286046835.0,N,0.0,0.0
1478814755.7,286046847.7,N,0.0,0.0
1478814775.5,286046838.9,N,0.0,0.0
1478814795.4,286046850.4,N,0.0,0.0
1478814815.2,286046850.4,N,0.0,0.0
1478814835.0,286046900.3,N,0.0,0.0
1478814835.9,286046900.3,N,0.0,0.0
1478814855.8,286046898.9,N,0.0,0.0
1478814875.6,286046900.3,N,0.0,0.0
1478814895.4,286046899.7,N,0.0,0.0
1478814915.3,286046899.3,N,0.0,0.0
1478814935.1,286046899.3,N,0.0,0.0
1478814955.8,286046898.3,N,0.0,0.0
1478814975.7,286046900.0,N,0.0,0.0
1478814995.5,286046898.0,N,0.0,0.0
1478815015.3,286046902.0,N,0.0,0.0
1478815035.2,286046901.4,N,0.0,0.0
1478815055.0,286046901.5,N,0.0,0.0
1478815055.9,286046901.5,N,0.0,0.0
1478815075.8,286046901.5,N,0.0,0.0
1478815095.6,286046900.5,N,0.0,0.0
1478815115.4,286046902.7,N,0.0,0.0
1478815135.3,286046902.7,N,0.0,0.0
1478815155.1,286046902.9,N,0.0,0.0
1478815175.8,286046848.6,N,0.0,0.0
1478815195.7,286046846.1,N,0.0,0.0
